Indianapolis, IN

5:25 PM EST on November 16, 2019 (GMT -0500)
Indianapolis Terry

Weather History for KTYQ - June, 2019

Change the Weather History Date:

Saturday, June 8, 2019

  Actual Average (KEYE) Record (KEYE)
Temperature  
Mean Temperature 70 °F -  
Max Temperature 78 °F 75 °F 93 °F (2011)
Min Temperature 62 °F 59 °F 53 °F (2016)
Cooling Degree Days 5    
Growing Degree Days 20 (Base 50)    
Moisture  
Dew Point 60 °F    
Average Humidity 72    
Maximum Humidity 86    
Minimum Humidity 57    
Precipitation  
Precipitation 0.00 in - - ()
Sea Level Pressure  
Sea Level Pressure 29.92 in    
Wind  
Wind Speed 10 mph ()    
Max Wind Speed 17 mph    
Max Gust Speed 25 mph    
Visibility 10.0 miles    
Events      
Averages and records for this station are not official NWS values.
T = Trace of Precipitation, MM = Missing Value Source: Averaged Metar Reports

Daily Weather History Graph

Daily Weather History Graph

Search for Another Location

Airport or City:

Astronomy

Jun. 08, 2019 Rise Set
Actual Time 6:16 AM EDT 9:12 PM EDT
Civil Twilight 5:43 AM EDT 9:44 PM EDT
Nautical Twilight 5:02 AM EDT 10:26 PM EDT
Astronomical Twilight 4:14 AM EDT 11:13 PM EDT
Moon 11:43 AM EDT (6/8) 1:13 AM EDT (6/8)
Length of Visible Light 16h 01m
Length of Day
14h 56m
Waxing Crescent, 32% of the Moon is Illuminated
Jun 8
Waxing Crescent
Jun 10
First Quarter
Jun 17
Full
Jun 25
Last Quarter
Jul 2
New

Hourly Weather History & Observations

Time (EDT) Temp. Dew Point Humidity Pressure Visibility Wind Dir Wind Speed Gust Speed Precip Events Conditions
12:15 AM 66.4 °F 51.6 °F 59% 29.94 in 10.0 mi ENE 10.4 mph 18.4 mph N/A   Clear
12:35 AM 66.2 °F 50.7 °F 57% 29.94 in 10.0 mi ENE 9.2 mph 18.4 mph N/A   Clear
12:55 AM 66.0 °F 50.2 °F 57% 29.94 in 10.0 mi ENE 11.5 mph 17.3 mph N/A   Clear
1:15 AM 65.3 °F 50.0 °F 58% 29.93 in 10.0 mi ENE 11.5 mph - N/A   Clear
1:35 AM 64.8 °F 50.4 °F 60% 29.93 in 10.0 mi ENE 10.4 mph 16.1 mph N/A   Clear
1:55 AM 64.6 °F 50.4 °F 60% 29.92 in 10.0 mi ENE 8.1 mph - N/A   Clear
2:15 AM 64.0 °F 50.5 °F 61% 29.92 in 10.0 mi NE 9.2 mph - N/A   Clear
2:35 AM 63.9 °F 50.9 °F 63% 29.92 in 10.0 mi ENE 9.2 mph - N/A   Clear
2:55 AM 63.7 °F 50.9 °F 63% 29.91 in 10.0 mi ENE 9.2 mph - N/A   Clear
3:15 AM 63.9 °F 51.1 °F 63% 29.91 in 10.0 mi ENE 11.5 mph - N/A   Clear
3:35 AM 63.9 °F 51.3 °F 64% 29.91 in 10.0 mi ENE 8.1 mph - N/A   Clear
3:55 AM 63.9 °F 51.8 °F 65% 29.90 in 10.0 mi ENE 10.4 mph 16.1 mph N/A   Clear
4:15 AM 63.5 °F 52.3 °F 67% 29.90 in 10.0 mi ENE 9.2 mph 17.3 mph N/A   Clear
4:35 AM 63.5 °F 52.9 °F 68% 29.91 in 10.0 mi ENE 9.2 mph 16.1 mph N/A   Clear
4:55 AM 63.0 °F 53.4 °F 71% 29.91 in 10.0 mi ENE 6.9 mph - N/A   Clear
5:15 AM 63.0 °F 53.6 °F 71% 29.91 in 10.0 mi ENE 9.2 mph - N/A   Clear
5:35 AM 63.1 °F 53.6 °F 71% 29.91 in 10.0 mi ENE 9.2 mph - N/A   Clear
5:55 AM 62.8 °F 54.0 °F 73% 29.91 in 10.0 mi ENE 8.1 mph 17.3 mph N/A   Clear
6:15 AM 62.6 °F 54.5 °F 75% 29.91 in 10.0 mi East 6.9 mph - N/A   Clear
6:35 AM 62.1 °F 54.9 °F 77% 29.91 in 10.0 mi East 9.2 mph - N/A   Clear
6:55 AM 62.1 °F 55.4 °F 79% 29.92 in 10.0 mi ENE 6.9 mph - N/A   Clear
7:15 AM 62.4 °F 55.8 °F 79% 29.92 in 10.0 mi East 9.2 mph - N/A   Clear
7:35 AM 62.6 °F 56.3 °F 80% 29.92 in 10.0 mi East 9.2 mph - N/A   Clear
7:55 AM 62.8 °F 57.0 °F 81% 29.92 in 10.0 mi East 9.2 mph - N/A   Clear
8:15 AM 63.1 °F 57.2 °F 81% 29.93 in 10.0 mi East 10.4 mph - N/A   Clear
8:35 AM 63.9 °F 58.3 °F 82% 29.93 in 10.0 mi East 8.1 mph - N/A   Clear
8:55 AM 66.4 °F 59.0 °F 77% 29.93 in 10.0 mi East 8.1 mph - N/A   Clear
9:15 AM 66.0 °F 59.4 °F 79% 29.93 in 10.0 mi ENE 11.5 mph - N/A   Clear
9:35 AM 67.6 °F 60.6 °F 78% 29.93 in 10.0 mi East 8.1 mph - N/A   Clear
9:55 AM 69.1 °F 61.7 °F 77% 29.93 in 10.0 mi ENE 9.2 mph - N/A   Clear
10:15 AM 72.9 °F 62.6 °F 70% 29.93 in 10.0 mi East 12.7 mph 17.3 mph N/A   Clear
10:35 AM 71.6 °F 62.4 °F 73% 29.93 in 10.0 mi ENE 8.1 mph - N/A   Clear
10:55 AM 71.6 °F 62.8 °F 74% 29.93 in 10.0 mi ENE 11.5 mph - N/A   Clear
11:15 AM 73.0 °F 63.7 °F 72% 29.93 in 10.0 mi ENE 9.2 mph - N/A   Clear
11:35 AM 75.4 °F 64.4 °F 69% 29.93 in 10.0 mi East 10.4 mph - N/A   Clear
11:55 AM 75.7 °F 64.8 °F 69% 29.93 in 10.0 mi ENE 12.7 mph - N/A   Clear
12:15 PM 76.3 °F 64.8 °F 67% 29.93 in 10.0 mi ENE 11.5 mph 18.4 mph N/A   Scattered Clouds
12:35 PM 76.5 °F 65.3 °F 68% 29.93 in 10.0 mi East 12.7 mph - N/A   Mostly Cloudy
12:55 PM 76.3 °F 65.5 °F 69% 29.93 in 10.0 mi ENE 11.5 mph 20.7 mph N/A   Scattered Clouds
1:15 PM 75.0 °F 64.9 °F 71% 29.94 in 10.0 mi East 9.2 mph - N/A   Mostly Cloudy
1:35 PM 76.5 °F 66.0 °F 70% 29.93 in 10.0 mi East 12.7 mph - N/A   Overcast
1:55 PM 75.7 °F 64.9 °F 69% 29.93 in 10.0 mi East 10.4 mph 18.4 mph N/A   Overcast
2:15 PM 75.6 °F 65.3 °F 70% 29.93 in 10.0 mi East 12.7 mph 16.1 mph N/A   Overcast
2:35 PM 76.3 °F 65.5 °F 69% 29.92 in 10.0 mi East 11.5 mph - N/A   Overcast
2:55 PM 77.0 °F 65.3 °F 67% 29.92 in 10.0 mi ESE 13.8 mph - N/A   Overcast
3:15 PM 77.7 °F 65.5 °F 66% 29.92 in 10.0 mi East 12.7 mph 19.6 mph N/A   Mostly Cloudy
3:35 PM 77.5 °F 65.5 °F 66% 29.92 in 10.0 mi East 12.7 mph 18.4 mph N/A   Mostly Cloudy
3:55 PM 77.5 °F 65.3 °F 66% 29.91 in 10.0 mi East 13.8 mph 17.3 mph N/A   Overcast
4:15 PM 78.4 °F 65.7 °F 65% 29.91 in 10.0 mi East 16.1 mph 20.7 mph N/A   Overcast
4:35 PM 78.8 °F 65.7 °F 64% 29.91 in 10.0 mi ESE 17.3 mph 23.0 mph N/A   Mostly Cloudy
4:55 PM 76.8 °F 65.5 °F 68% 29.91 in 10.0 mi ESE 11.5 mph - N/A   Overcast
5:15 PM 76.6 °F 65.3 °F 68% 29.91 in 10.0 mi ESE 13.8 mph - N/A   Mostly Cloudy
5:35 PM 76.3 °F 65.3 °F 69% 29.91 in 10.0 mi East 10.4 mph 18.4 mph N/A   Mostly Cloudy
5:55 PM 75.6 °F 65.5 °F 71% 29.91 in 10.0 mi East 11.5 mph 17.3 mph N/A   Mostly Cloudy
6:15 PM 76.1 °F 65.7 °F 70% 29.91 in 10.0 mi ESE 12.7 mph 16.1 mph N/A   Scattered Clouds
6:35 PM 75.4 °F 66.2 °F 73% 29.91 in 10.0 mi East 9.2 mph - N/A   Mostly Cloudy
6:55 PM 74.8 °F 66.4 °F 75% 29.91 in 10.0 mi ESE 12.7 mph 16.1 mph N/A   Overcast
7:15 PM 74.5 °F 65.7 °F 74% 29.91 in 10.0 mi East 11.5 mph - N/A   Overcast
7:35 PM 73.9 °F 65.3 °F 74% 29.91 in 10.0 mi East 11.5 mph - N/A   Overcast
7:55 PM 73.8 °F 65.5 °F 75% 29.91 in 10.0 mi East 9.2 mph - N/A   Overcast
8:15 PM 73.4 °F 64.2 °F 73% 29.92 in 10.0 mi East 15.0 mph 20.7 mph N/A   Overcast
8:35 PM 72.7 °F 64.2 °F 75% 29.92 in 10.0 mi East 13.8 mph 20.7 mph N/A   Overcast
8:55 PM 71.6 °F 64.4 °F 78% 29.93 in 10.0 mi East 13.8 mph 21.9 mph N/A   Overcast
9:15 PM 70.7 °F 64.6 °F 81% 29.93 in 10.0 mi East 16.1 mph 23.0 mph N/A   Overcast
9:35 PM 70.0 °F 64.6 °F 83% 29.94 in 10.0 mi ESE 16.1 mph 25.3 mph N/A   Overcast
9:55 PM 69.8 °F 64.8 °F 84% 29.94 in 10.0 mi ESE 13.8 mph - N/A   Overcast
10:15 PM 69.4 °F 64.8 °F 85% 29.94 in 10.0 mi East 10.4 mph - N/A   Overcast
10:35 PM 69.4 °F 64.6 °F 84% 29.94 in 10.0 mi East 10.4 mph 17.3 mph N/A   Overcast
10:55 PM 69.4 °F 64.6 °F 84% 29.94 in 10.0 mi East 9.2 mph - N/A   Overcast
11:15 PM 69.3 °F 64.8 °F 86% 29.94 in 10.0 mi East 6.9 mph - N/A   Overcast
11:35 PM 69.4 °F 64.6 °F 84% 29.94 in 10.0 mi East 9.2 mph 16.1 mph N/A   Overcast
11:55 PM 69.3 °F 64.4 °F 84% 29.94 in 10.0 mi East 9.2 mph - N/A   Overcast